CZ-6A DEB, 54393

Orbit data source: Space-Track

CZ-6A DEB, 54393 is space debris in SSO originally from a launch on Fri, 11 Nov 2022 UTC launched from the Taiyaun Space Center, China (TSC). Debris objects in space refer to the collection of defunct objects orbiting the Earth. Examples of debris include non-operational satellites, rocket bodies, and fragments generated from explosions, collisions, or faulty payload assembly.

Loading next visibility...
Identifier
54393, 2022-151DR
Orbit
SSO
Country
Flag of CNCN / PRC
Related business
Manufacturer
SAST
Mission
Spacecraft
Bus & Motor
Unknown
Mass
Unknown
Launch date (UTC)
2022-11-11 (4 years ago)
Launch vehicle
Unknown
Launch site
Taiyaun Space Center, China (TSC)
Object type
Payload
Rocket body
Debris
Shape & HBR
Unknown shape, 0.2 m
Radar Cross Section
Medium (>0.1 m² and <1 m²)

Expand to show TLE details & history
Last TLE update: 2 days ago

TLE from 2 days ago
0 CZ-6A DEB
1 54393U 22151DR  26171.05709759  .00000029  00000-0  66662-4 0  9995
2 54393  98.5057  25.8605 0312865 259.8580  96.7140 13.58687813178382
Epoch: 2026-06-20T01:22Z
TLE epoch observation values (Epoch: 2026-06-20T01:22:13.231Z)
Latitude
-0.00006°
Longitude
97.02819°
Altitude
1,077.564 km
Speed
7.296 km/s
True Right ascension
01h 43m 26s
True Declination
0° 00' 00"
Sunlit
Object was in daylight at epoch
Visualization orbit readout
Latitude
Unknown
Longitude
Unknown
Altitude
Unknown
Speed
Unknown
Apparent Right ascension
Unknown
Apparent Declination
Unknown
Sunlit
N/A
Visualization observer readout
Local Sidereal Time
21:33:23
Azimuth
Unknown
Elevation
Unknown
Doppler factor
Unknown
Orbital elements
Apogee altitude
1,269.708 km
Perigee altitude
805.677 km
Semi-major axis
7,415.829 km
Eccentricity
0.03129
Inclination
98.5057°
RAAN
25.8605°
Arg. of periapsis
259.858°
True anomaly
100.25612°
Mean anomaly
96.714°
Eccentric anomaly
98.48695°
Mean motion
3.39863 °/min
Orbital period
105.93 mins
BSTAR
0.000066662
Loading maneuver chart data...
Computing Atmospheric mass density...
Loading historical data...
Loading historical data...
Loading historical data...
Loading historical data...
Loading historical data...
Loading historical data...
Loading historical data...

Documentation

Showing up to 5 results
|